Regional Weather Roundup
Issued by NWS Charleston, WV

Home | Current Version | Previous Version | Text Only | Print | Product List | Glossary Off
Versions: 1 2 3 4 5 6 7 8 9 10 11 12 13 14 15 16 17 18 19 20 21 22 23 24 25 26 27 28 29 30 31 32 33 34 35 36 37 38 39 40 41 42 43 44 45 46 47 48 49 50

000
ASUS41 KRLX 252010
RWRRLX
West Virginia Regional Weather Roundup
National Weather Service Charleston WV
400 PM EDT TUE APR 25 2017

Note: "fair" indicates few or no clouds below 12,000 feet with no
significant weather and/or obstructions to visibility.

WVZ003-252100-
Northern Panhandle of West Virginia

CITY           SKY/WX    TMP DP  RH WIND       PRES   REMARKS
WHEELING       CLOUDY    64  52  64 MISG      29.81F
$$

WVZ009-252100-
Northwest West Virginia

CITY           SKY/WX    TMP DP  RH WIND       PRES   REMARKS
PARKERSBURG    CLOUDY    70  53  54 NE3       29.78F
$$

WVZ006-252100-
Western West Virginia

CITY           SKY/WX    TMP DP  RH WIND       PRES   REMARKS
HUNTINGTON     PTSUNNY   70  56  61 VRB6      29.73F
$$

WVZ015-252100-
West Central West Virginia

CITY           SKY/WX    TMP DP  RH WIND       PRES   REMARKS
CHARLESTON     CLOUDY    65  57  75 CALM      29.75F
$$

WVZ022-031-252100-
North Central West Virginia

CITY           SKY/WX    TMP DP  RH WIND       PRES   REMARKS
CLARKSBURG     CLOUDY    64  52  64 NE6       29.78F
MORGANTOWN     CLOUDY    63  52  67 NE7       29.80F
$$

WVZ025-035-042-045-252100-
Southern West Virginia

CITY           SKY/WX    TMP DP  RH WIND       PRES   REMARKS
BECKLEY        CLOUDY    62  54  74 N7        29.77S
LOGAN          PTSUNNY   66  57  72 N6        29.75F
BLUEFIELD      CLOUDY    60  52  74 CALM      29.78F
LEWISBURG      CLOUDY    60  51  72 E9        29.77S
$$

WVZ047-252100-
Northern Mountains of West Virginia

CITY           SKY/WX    TMP DP  RH WIND       PRES   REMARKS
ELKINS         CLOUDY    63  50  62 N6        29.78F
$$

WVZ052-252100-
Eastern Panhandle of West Virginia

CITY           SKY/WX    TMP DP  RH WIND       PRES   REMARKS
MARTINSBURG    LGT RAIN  55  54  96 N14       29.79F FOG
PETERSBURG     DRIZZLE   57  55  94 N7        29.82F
$$



USA.gov is the U.S. government's official web portal to all federal, state and local government web resources and services.